DECAYED

STARLINK-33775, 63852 (Decayed)

Orbit data source: Space-Track

STARLINK-33775, 63852 was a payload satellite owned by SpaceX/Seattle (US) in LEO that was launched on Wed, 07 May 2025 UTC via an FALCON 9 launch vehicle from the Air Force Eastern Test Range (AFETR). Payload-class satellites include a variety of spacecraft equipped with specific instruments for various scientific and technological missions. These include communications satellites like Starlink; space stations such as the ISS; scientific satellites like the Hubble; Earth observation satellites from companies like Planet Labs, Umbra, and HawkEye 360; GPS; miniature CubeSats for education and research; and military/defense satellites.

Not visible in the next 10 days
Identifier
63852, 2025-093S
Orbit
Decayed
Country
Flag of USUS
Related business
Manufacturer
SpaceX/Seattle
Mission
Decayed Commercial Communications
Bus & Motor
STARLINK V2MO, Unknown motor
Mass
575 kg wet, ~530 kg dry
Launch date (UTC)
2025-05-07 (1 year ago)
Launch vehicle
FALCON 9
Launch site
Air Force Eastern Test Range (AFETR)
Object type
Payload
Rocket body
Debris
Shape & HBR
Box + 2 Pan, 14.5 m
Radar Cross Section
36.964 m², Large (>1 m²)

Expand to show TLE details & history
Last TLE update: 1 year ago

TLE from 1 year ago
0 STARLINK-33775
1 63852U 25093S   25136.94937979  .09441839  90363-5  32739-2 0  9997
2 63852  43.0067 319.1024 0008186 288.6553 191.5194 16.24254455  2455
Epoch: 2025-05-16T22:47Z
TLE epoch observation values (Epoch: 2025-05-16T22:47:06.413Z)
Latitude
36.28352°
Longitude
-129.06869°
Altitude
214.959 km
Speed
7.78 km/s
True Right ascension
05h 50m 25s
True Declination
36° 06' 22"
Sunlit
Object was in daylight at epoch
Visualization orbit readout
Latitude
Unknown
Longitude
Unknown
Altitude
Unknown
Speed
Unknown
Apparent Right ascension
Unknown
Apparent Declination
Unknown
Sunlit
N/A
Visualization observer readout
Local Sidereal Time
08:43:01
Azimuth
Unknown
Elevation
Unknown
Doppler factor
Unknown
Orbital elements
Apogee altitude
215.444 km
Perigee altitude
204.658 km
Semi-major axis
6,588.188 km
Eccentricity
0.00082
Inclination
43.0067°
RAAN
319.1024°
Arg. of periapsis
288.6553°
True anomaly
191.50069°
Mean anomaly
191.5194°
Eccentric anomaly
191.51004°
Mean motion
4.05877 °/min
Orbital period
88.7 mins
BSTAR
0.0032739
Loading maneuver chart data...
Computing Atmospheric mass density...
Loading historical data...
Loading historical data...
Loading historical data...
Loading historical data...
Loading historical data...
Loading historical data...
Loading historical data...

Documentation

Showing up to 5 results
|